Regional Weather Roundup
Issued by NWS

Home | Current Version | Previous Version | Text Only | Print | Product List | Glossary Off
Versions: 1 2 3 4 5 6 7 8 9 10 11 12 13 14 15 16 17 18 19 20 21 22 23 24 25 26 27 28 29 30 31 32 33 34 35 36 37 38 39 40 41 42 43 44 45 46 47 48 49 50

000
ASUS43 KLOT 281809
RWRIL

ILLINOIS REGIONAL WEATHER ROUNDUP
NATIONAL WEATHER SERVICE CHICAGO/ROMEOVILLE IL
100 PM CDT SAT MAY 28 2016

NOTE: "FAIR" INDICATES FEW OR NO CLOUDS BELOW 12,000 FEET WITH NO
SIGNIFICANT WEATHER AND/OR OBSTRUCTIONS TO VISIBILITY.

* THESE STATIONS ARE NOT UNDER NWS QUALITY CONTROL. THEY ALSO MAY NOT
  REPORT WEATHER SUCH AS PRECIPITATION OR FOG.

ILZ001-002-007-009-015-016-024-281900-
NORTHWEST ILLINOIS

CITY           SKY/WX    TMP DP  RH WIND       PRES   REMARKS
MOLINE         MOSUNNY   81  65  58 S14       29.84S HX  83
6HR MIN TEMP:  72; 6HR MAX TEMP:  81;

STERLING*      PTSUNNY   79  67  66 S10G17    29.88F HX  81
SAVANNA*       SUNNY     80  65  60 S15G21    29.85S HX  82
$$

ILZ003-004-008-010-011-017-018-281900-
NORTH CENTRAL ILLINOIS

CITY           SKY/WX    TMP DP  RH WIND       PRES   REMARKS
ROCKFORD       PTSUNNY   79  63  57 SW17G26   29.90S HX  80
6HR MIN TEMP:  70; 6HR MAX TEMP:  79;

FREEPORT*      PTSUNNY   78  65  64 S16G23    29.89S
ROCHELLE*      CLOUDY    78  65  64 S17G24    29.90F HX  80
DE KALB*       CLOUDY    76  68  75 S23G29    29.92S
$$

ILZ005-006-012>014-019>023-281900-
NORTHEAST ILLINOIS

CITY           SKY/WX    TMP DP  RH WIND       PRES   REMARKS
CHICAGO-OHARE  CLOUDY    75  65  70 SW16G22   29.92S
6HR MIN TEMP:  70; 6HR MAX TEMP:  76;

CHICAGO-MIDWAY CLOUDY    76  63  64 S18G25    29.93S
6HR MIN TEMP:  73; 6HR MAX TEMP:  78;

AURORA         CLOUDY    79  66  64 S16G30    29.93S HX  81
6HR MIN TEMP:  71; 6HR MAX TEMP:  79;

LANSING*       CLOUDY    76  65  68 SW16G23   29.95F
JOLIET*        CLOUDY    76  67  73 S13G18    29.94S
WAUKEGAN       CLOUDY    76  65  68 S15       29.90S
6HR MIN TEMP:  67; 6HR MAX TEMP:  77; 6HR PCP: TRACE;

DUPAGE AIRPORT CLOUDY    75  64  68 S16G26    29.92S
6HR MIN TEMP:  70; 6HR MAX TEMP:  75;

KANKAKEE*      CLOUDY    74  66  75 S12G17    29.97S
WHEELING       CLOUDY    75  64  68 S17       29.93R
6HR MIN TEMP:  71; 6HR MAX TEMP:  77;

MORRIS*        CLOUDY    76  67  73 S15       29.92F
ROMEOVILLE*    CLOUDY    75  63  67 S20       29.94S
NORTHERLY ISL    N/A     74  62  66 S18         N/A
NORTHERLY ISL    N/A     74  62  66 S18         N/A
$$

LMZ740>746-281900-
SOUTHERN LAKE MICHIGAN

STATION/POSITION SKY/WX   TEMP    WIND        PRES    VSBY  WAVE
                          AIR SEA DIR/SP/G                  HT/PER
                          (F)     (DEG/KT/KT) (MB)    (MI)  (FT/S)
SOUTHERN BUOY              57 50  160/ 14/ 16 1013.1S         2/ 4
WILMETTE HARBOR            68 55  220/ 14/ 19   N/A           2/ 3
HARRISON CRIB              71     190/ 23/ 24   N/A
BURNHAM HARBOR             75     190/ 23       N/A
CALUMET HARBOR             75     180/ 14/ 20 1013.3R
BURNS HARBOR               75     190/ 14/ 25 1014.9R
MICHIGAN CITY              76     160/ 18/ 22   N/A
MICHIGAN CITY 6N           70 58  200/ 17/ 23   N/A           2/ 3
ST. JOSEPH                 69 60  190/ 12/ 16   N/A           3/ 3
$$

ILZ025>027-034>036-040-047-049-050-058-095>099-281900-
WEST-CENTRAL ILLINOIS

CITY           SKY/WX    TMP DP  RH WIND       PRES   REMARKS
QUINCY         MOSUNNY   79  66  64 SE17G29   29.86F HX  81
GALESBURG*     PTSUNNY   77  66  68 S15G21    29.88S
MACOMB*        PTSUNNY   78  67  68 S15G25    29.90S HX  80
JACKSONVILLE*  PTSUNNY   80  66  63 S13       29.91S HX  82
PITTSFIELD*    MOSUNNY   79  69  73 S13       29.91F HX  81
$$

ILZ028>032-037-038-041>044-048-051>054-059>061-281900-
CENTRAL ILLINOIS

CITY           SKY/WX    TMP DP  RH WIND       PRES   REMARKS
PONTIAC        CLOUDY    79  66  64 S20G25    29.94F HX  81
BLOOMINGTON    PTSUNNY   79  68  69 SW21G28   29.95F HX  81
DECATUR        CLOUDY    80  67  64 S21G30    29.95F HX  82
PEORIA         MOSUNNY   80  64  58 S18G25    29.90F HX  82
6HR MIN TEMP:  70; 6HR MAX TEMP:  80;

LACON*         MOSUNNY   79  64  61 S10G21    29.89F HX  80
LINCOLN*       MOSUNNY   81  68  64 S15       29.92F HX  83
SPRINGFIELD    MOSUNNY   82  66  58 S17       29.92F HX  84
6HR MIN TEMP:  70; 6HR MAX TEMP:  83;

TAYLORVILLE    PTSUNNY   79  68  69 S17       29.94F HX  81
6HR MIN TEMP:  68; 6HR MAX TEMP:  79;

$$

ILZ033-039-045-046-055>057-062-063-281900-
EAST-CENTRAL ILLINOIS

CITY           SKY/WX    TMP DP  RH WIND       PRES   REMARKS
CHAMPAIGN      CLOUDY    76  66  71 S23       29.98S
RANTOUL*       CLOUDY    76  68  75 S16G22    29.98S
MATTOON        CLOUDY    75  65  70 S9G18     29.99S
PARIS*         CLOUDY    78  68  71 SW13      30.02S HX  80
$$

ILZ079-100>102-281900-
SOUTHWEST ILLINOIS

CITY           SKY/WX    TMP DP  RH WIND       PRES   REMARKS
ALTON          MOSUNNY   79  68  69 S14       29.94F HX  81
BELLEVILLE     MOSUNNY   81  71  72 SE8       29.94F HX  85
CAHOKIA*       SUNNY     82  67  60 S9        29.93F HX  84
SPARTA*        MOSUNNY   78  69  73 S15       29.97F HX  80
$$

ILZ064>066-069>071-074>076-080>082-084>086-088>090-092>094-281900-
SOUTH-CENTRAL ILLINOIS

CITY           SKY/WX    TMP DP  RH WIND       PRES   REMARKS
CARBONDALE     MOSUNNY   78  67  68 S12       29.99F HX  80
6HR MIN TEMP:  69; 6HR MAX TEMP:  78; 6HR PCP: TRACE;

CAIRO*         CLOUDY    78  67  68 SW9       30.01S HX  80
EFFINGHAM*     PTSUNNY   77  69  77 SE9       30.01S
MARION         PTSUNNY   79  68  69 S14G20    30.00F HX  81
MT. VERNON     CLOUDY    79  66  65 SW15G21   30.00F HX  81
CENTRALIA*     CLOUDY    78  71  79 S15       29.98S HX  80
SALEM*         CLOUDY    78  68  72 S13       29.98F HX  80
METROPOLIS*    CLOUDY    80  71  74 S12G18    30.02S HX  83
$$

ILZ067-068-072-073-078-083-087-091-281900-
SOUTHEAST ILLINOIS

CITY           SKY/WX    TMP DP  RH WIND       PRES   REMARKS
LAWRENCEVILLE  MOSUNNY   83  62  49 S18       30.00F HX  84
FLORA*         CLOUDY    79  68  69 S14       30.00F HX  82
FAIRFIELD*     CLOUDY    78  67  68 S13       30.00S HX  80
HARRISBURG*    CLOUDY    79  69  70 S14       30.01S HX  82
ROBINSON*      CLOUDY    80  65  61 S15       30.01S HX  82
CARMI*         CLOUDY    78  68  70 S17       30.01R HX  81
$$

ABBREVIATIONS USED IN REMARKS
   TC - TEMPERATURE IN CELSIUS
  WCI - WIND CHILL INDEX
   HX - HEAT INDEX
  VSB - VISIBILITY
$$




USA.gov is the U.S. government's official web portal to all federal, state and local government web resources and services.